This demonstration page uses our WeatherBlox Daily Observations layout. Learn more.

Left ArrowRight Arrow

38.88101, -77.10428

Hourly Observations for December 10, 2015

Temp ( °F °C ) Dew Point ( °F °C ) Humidity (%) Winds ( mph kmh ) Pressure ( in mb ) Visibility ( mi km ) Precip ( " mm )
12:35 am 00:35 Cloudy 48 8.9 44 6.7 86 86 N N/A 29.97 1015 9 14 N/A
12:52 am 00:52 Cloudy 48 8.9 44 6.7 86 86 N N/A 29.97 1015 9 14 N/A
1:29 am 01:29 Cloudy 46 7.8 43 6.1 89 89 N N/A 29.94 1014 8 13 N/A
1:52 am 01:52 Cloudy with Light Rain 47 8.3 43 6.1 86 86 N N/A 29.96 1015 7 11 N/A
2:52 am 02:52 Mostly Cloudy 45 7.2 44 6.7 97 97 SSE 3 6 29.96 1014 8 13 N/A
3:52 am 03:52 Mostly Clear 44 6.7 42 5.6 93 93 N 6 9 29.96 1015 9 14 N/A
4:52 am 04:52 Clear 43 6.1 41 5 93 93 NNW 5 7 29.98 1015 8 13 N/A
5:52 am 05:52 Clear with Mist and Fog 42 5.6 40 4.4 92 92 N 5 7 30.00 1016 5 8 N/A
6:52 am 06:52 Mostly Clear with Mist and Fog 42 5.6 41 5 96 96 NNE 5 7 30.01 1016 4 6 N/A
7:52 am 07:52 Sunny with Mist and Fog 42 5.6 41 5 96 96 N N/A 30.01 1016 4 6 N/A
8:52 am 08:52 Sunny with Mist and Fog 45 7.2 42 5.6 90 90 N N/A 30.02 1017 5 8 N/A
9:52 am 09:52 Sunny with Mist and Fog 48 8.9 45 7.2 89 89 S 6 9 30.04 1017 5 8 N/A
10:52 am 10:52 Hazy 51 10.6 46 7.8 83 83 SSE 5 7 30.04 1017 6 10 N/A
11:52 am 11:52 Partly Cloudy 56 13.3 46 7.8 70 70 SSE 3 6 30.01 1016 8 13 N/A
12:52 pm 12:52 Mostly Cloudy 59 15 44 6.7 58 58 N N/A 29.97 1015 10 16 N/A
1:52 pm 13:52 Cloudy 63 17.2 43 6.1 48 48 N N/A 29.96 1015 10 16 N/A
2:52 pm 14:52 Mostly Cloudy 61 16.1 43 6.1 52 52 N N/A 29.95 1014 10 16 N/A
3:52 pm 15:52 Mostly Cloudy 59 15 40 4.4 49 49 N N/A 29.95 1014 10 16 N/A
4:52 pm 16:52 Mostly Cloudy 58 14.4 41 5 53 53 N N/A 29.94 1014 10 16 N/A
5:52 pm 17:52 Mostly Cloudy 54 12.2 43 6.1 67 67 SSE 6 9 29.96 1015 10 16 N/A
6:52 pm 18:52 Mostly Cloudy 51 10.6 43 6.1 74 74 SSE 5 7 29.96 1015 10 16 N/A
7:52 pm 19:52 Partly Cloudy 54 12.2 43 6.1 67 67 SSW 3 6 29.97 1015 10 16 N/A
8:52 pm 20:52 Partly Cloudy 52 11.1 43 6.1 72 72 SSW 3 6 29.96 1015 10 16 N/A
9:52 pm 21:52 Partly Cloudy 49 9.4 42 5.6 77 77 N N/A 29.96 1014 10 16 N/A
10:52 pm 22:52 Cloudy 48 8.9 44 6.7 86 86 S 3 6 29.94 1014 10 16 N/A
11:52 pm 23:52 Cloudy 48 8.9 43 6.1 83 83 S 5 7 29.93 1013 10 16 N/A

Powered by AerisWeather